User: anonymous   Login
Location: Unspecified
(0.0000°N, 0.0000°E)
Time: 06:48:06
(UTC+00:00)
Language:

YAM-3 - Orbit

View from above orbital plane
View from above orbital plane
View from above satellite
View from above satellite

Ground track
Ground track

The orbit is defined by the following mean orbital elements,

1 48915U          26145.25294531 +.00000000 +00000-0 +21352-3 0 00005
2 48915  97.6999 330.7200 0006536  82.9205 277.2788 15.47976379    08
Epoch (UTC): 25 May 2026 06:04:14
Eccentricity: 0.0006536
inclination: 97.6999°
perigee height: 418 km
apogee height: 427 km
right ascension of ascending node: 330.7200°
argument of perigee: 82.9205°
revolutions per day: 15.47976379
mean anomaly at epoch: 277.2788°

The dashed part of the orbit path shows where the satellite is in the earth's shadow,  

DLR